Regional Weather Roundup
Issued by NWS Upton, NY

Current Version | Previous Version | Text Only | Print | Product List | Glossary On
Versions: 1 2 3 4 5 6 7 8 9 10 11 12 13 14 15 16 17 18 19 20 21 22 23 24 25 26 27
000 ASUS41 KOKX 210409 RWROKX REGIONAL WEATHER ROUNDUP NATIONAL WEATHER SERVICE NEW YORK NY 1200 AM EDT THU SEP 21 2017 NOTE: "FAIR" INDICATES FEW OR NO CLOUDS BELOW 12,000 FEET WITH NO SIGNIFICANT WEATHER AND/OR OBSTRUCTIONS TO VISIBILITY. NYZ071-072-176-178-NJZ106-104-210500- NEW YORK CITY METRO AREA CITY SKY/WX TMP DP RH WIND PRES REMARKS Central Park MOCLDY 74 63 68 VRB3 29.97R Bronx Bot Gard N/A 73 63 68 NW3 29.96S LaGuardia APRT MOCLDY 75 65 70 N13 29.92S Kennedy INTL CLOUDY 75 64 68 N12 29.94R Breezy Point N/A 73 N/A N/A NW7 N/A Newark/Liberty MOCLDY 75 62 64 NW10 29.94S Teterboro MOCLDY 74 63 68 N8 29.93S $$ NYZ177-179-078>081-210500- LONG ISLAND NEW YORK CITY SKY/WX TMP DP RH WIND PRES REMARKS Jones Beach N/A 73 N/A N/A N14 N/A Matinecock PT N/A 72 N/A N/A NW10 N/A Farmingdale MOCLDY 73 63 70 NW6 29.91R MacArthur/ISP CLOUDY 73 65 75 N12 29.89R Shirley CLOUDY 74 66 76 N14 29.89R Mt Sinai Harb N/A N/A N/A N/A N8 N/A Westhampton MOCLDY 72 64 76 N13 29.89R East Hampton CLOUDY 71 65 82 N12G20 29.85S Montauk N/A 72 67 84 N12G20 29.85S $$ NYZ052-065-067-210500- HUDSON VALLEY CITY SKY/WX TMP DP RH WIND PRES REMARKS White Plains MOCLDY 70 63 78 NW8 29.94S Larchmont Harb N/A 72 N/A N/A NW8 N/A Croton On Huds N/A 72 N/A N/A NW3 N/A Newburgh MOCLDY 72 66 83 N12 29.98S Montgomery CLOUDY 71 63 75 N5 29.98R Poughkeepsie CLOUDY 68 62 81 NW3 29.95S Albany MOCLDY 68 63 84 N6 30.00S $$ NJZ001-105-106-008-010-013-015-019>022-104-210500- NEW JERSEY CITY SKY/WX TMP DP RH WIND PRES REMARKS Newark/Liberty MOCLDY 75 62 64 NW10 29.94S Teterboro MOCLDY 74 63 68 N8 29.93S Caldwell CLOUDY 72 64 76 CALM 29.96S Somerville NOT AVBL Linden FAIR 73 62 68 N5 29.95S Perth Amboy N/A 73 N/A N/A N9 N/A Sussex CLOUDY 67 66 97 CALM 29.99S Andover N/A 64 64 100 CALM 30.00R Trenton CLEAR 70 66 87 NW5 29.96R Millville CLEAR 67 66 97 W3 29.96R Atlantic City CLEAR 69 65 86 NW5 29.94S Wrightstown CLEAR 68 63 84 NW7 29.93R Toms River PTCLDY 69 64 84 NW7 29.95S Belmar CLOUDY 69 64 84 NW7 29.95R $$ PAZ047>061-062-071-210500- EASTERN PENNSYLVANIA CITY SKY/WX TMP DP RH WIND PRES REMARKS Philadelphia PTCLDY 75 64 68 N6 29.96R Allentown CLEAR 68 62 81 NW3 29.99R Scranton PTCLDY 66 61 84 E6 30.03R $$ CTZ002-004>006-009-010-012-RIZ004-006-007-MAZ004-011-015-210500- SOUTHERN NEW ENGLAND IN CT CITY SKY/WX TMP DP RH WIND PRES REMARKS Bradley INTL CLOUDY 73 63 70 N13 29.93R Hartford MOCLDY 73 64 73 N8 29.91R Danbury MOCLDY 73 64 73 N8 29.95S Wtrbury/Oxford CLOUDY 69 63 81 N12 29.95R Norwalk Harbor N/A 73 N/A N/A NW9 N/A Bridgeport CLOUDY 73 63 70 NW6 29.91R Meriden MOCLDY 73 63 70 N9 29.91R New Haven MOCLDY 73 63 70 N8 29.89S Chester CLOUDY 72 66 83 N13G21 29.89S Groton CLOUDY 73 65 75 N15G23 29.84S Wilimantic CLOUDY 74 65 73 N15 29.89S IN RI CITY SKY/WX TMP DP RH WIND PRES REMARKS Providence CLOUDY 72 67 84 N16G33 29.86S Block Island CLOUDY 71 66 84 N24G38 29.81F Westerly CLOUDY 73 66 78 N17G28 29.84F IN MA CITY SKY/WX TMP DP RH WIND PRES REMARKS Boston CLOUDY 71 66 84 N20G29 29.87F Worcester CLOUDY 68 61 78 N17G26 29.94S Westfield CLOUDY 71 64 78 N6 29.95R Provincetown MOCLDY 64 62 93 N20G26 29.82R Nantucket RAIN 66 66 100 N33G47 29.67S FOG $$ ANZ330-335-338-340-345-350-353-355-210500- COASTAL MARINE OBSERVATIONS STATION/POSITION TIME SKY/WX TEMP WIND PRES VSBY WAVE AIR SEA DIR/SP/G HT/PER (UTC) (F) (DEG/KT/KT) (MB) (MI) (FT/S) NY HARB ENTRANCE 0250 74 70 340/ 12/ 16 1012.1 5/11 20 S FIRE ISLAND 0250 71 68 330/ 10/ 12 1012.0 7/ 9 GREAT SOUTH BAY 0330 73 71 360/ 10/ 12 N/A 23 SSW MONTAUK P 0250 69 66 1010.0 6/10 15 E BARNEGAT LI 0330 69 N/A 6/10 HUDSON CANYON 0250 71 69 350/ 17/ 21 1009.7 11/10 KINGS POINT 0348 73 71 10/ 12/ 13 1014.2 EXECUTION ROCKS 0345 73 340/ 10/ 12 N/A WESTERN LI SOUND NOT AVBL CENTRAL LI SOUND 0330 72 360/ 14/ 17 N/A 2 EASTERN LI SOUND NOT AVBL ROBBINS REEF 0348 75 330/ 7/ 11 1014.4 $$ >>>>>>>>>>>>>>>>>>>>>>>>>>>> KEY <<<<<<<<<<<<<<<<<<<<<<<<<<< > < > SKY/WX - Sky Condition/Present Weather < > TMP - Temperature in Fahrenheit < > DP - Dew Point in Fahrenheit < > RH - Relative Humidity in Percent < > WIND - Direction (from) and Speed in MPH < > PRES - Mean Sea Level Pressure (inches of Hg) < > WCI - Wind Chill Index < > VSB - VISIBILITY IN MILES < > HX - HEAT INDEX < > TC - TEMPERATURE IN CELSIUS < > VRB - VARIABLE WIND DIRECTION < > < >>>>>>>>>>>>>>>>>>>>>>>>>>>> KEY <<<<<<<<<<<<<<<<<<<<<<<<<<<

USA.gov is the U.S. government's official web portal to all federal, state and local government web resources and services.